TimeCDT,TemperatureF,Dew PointF,Humidity,Sea Level PressureIn,VisibilityMPH,Wind Direction,Wind SpeedMPH,Gust SpeedMPH,PrecipitationIn,Events,Conditions,WindDirDegrees,DateUTC
12:53 AM,79.0,73.9,84,29.93,10.0,Calm,Calm,-,N/A,,Clear,0,2013-08-07 05:53:00
1:53 AM,79.0,73.9,84,29.94,10.0,Calm,Calm,-,N/A,,Clear,0,2013-08-07 06:53:00
2:53 AM,78.1,75.0,90,29.94,10.0,WNW,3.5,-,N/A,,Clear,290,2013-08-07 07:53:00
3:53 AM,77.0,73.9,90,29.93,10.0,WNW,3.5,-,N/A,,Clear,290,2013-08-07 08:53:00
4:53 AM,75.9,73.9,94,29.92,10.0,Calm,Calm,-,N/A,,Clear,0,2013-08-07 09:53:00
5:53 AM,75.9,73.9,94,29.93,10.0,Calm,Calm,-,N/A,,Clear,0,2013-08-07 10:53:00
6:53 AM,75.0,73.0,94,29.95,9.0,Calm,Calm,-,N/A,,Clear,0,2013-08-07 11:53:00
7:36 AM,75.2,73.4,94,29.98,7.0,Calm,Calm,-,N/A,,Scattered Clouds,0,2013-08-07 12:36:00
7:45 AM,77.0,75.2,94,29.98,7.0,Calm,Calm,-,N/A,,Mostly Cloudy,0,2013-08-07 12:45:00
7:53 AM,78.1,75.0,90,29.96,7.0,Calm,Calm,-,N/A,,Overcast,0,2013-08-07 12:53:00
8:53 AM,81.0,75.9,85,29.98,6.0,NNW,5.8,-,N/A,,Haze,330,2013-08-07 13:53:00
9:23 AM,82.4,75.2,79,30.00,7.0,WNW,4.6,-,N/A,,Scattered Clouds,300,2013-08-07 14:23:00
9:53 AM,84.9,75.0,72,29.98,9.0,WNW,4.6,-,N/A,,Clear,300,2013-08-07 14:53:00
10:53 AM,88.0,75.0,65,29.98,10.0,WNW,4.6,-,N/A,,Clear,300,2013-08-07 15:53:00
11:53 AM,90.0,72.0,55,29.97,10.0,Calm,Calm,-,N/A,,Clear,0,2013-08-07 16:53:00
12:53 PM,91.9,69.1,47,29.96,10.0,SW,4.6,-,N/A,,Clear,230,2013-08-07 17:53:00
1:53 PM,95.0,71.1,46,29.94,10.0,Variable,3.5,-,N/A,,Clear,0,2013-08-07 18:53:00
2:53 PM,93.0,69.1,45,29.92,10.0,NNW,3.5,-,N/A,,Scattered Clouds,330,2013-08-07 19:53:00
3:53 PM,95.0,68.0,41,29.91,10.0,Calm,Calm,-,N/A,,Mostly Cloudy,0,2013-08-07 20:53:00
4:53 PM,93.9,69.1,44,29.89,10.0,WSW,5.8,-,N/A,,Clear,250,2013-08-07 21:53:00
5:53 PM,93.9,69.1,44,29.88,10.0,WSW,5.8,-,N/A,,Clear,250,2013-08-07 22:53:00
6:53 PM,91.9,69.1,47,29.88,10.0,SW,4.6,-,N/A,,Clear,220,2013-08-07 23:53:00
7:53 PM,88.0,71.1,57,29.89,10.0,Calm,Calm,-,N/A,,Clear,0,2013-08-08 00:53:00
8:53 PM,84.9,72.0,65,29.90,10.0,Calm,Calm,-,N/A,,Clear,0,2013-08-08 01:53:00
9:53 PM,82.0,73.0,74,29.92,10.0,Calm,Calm,-,N/A,,Clear,0,2013-08-08 02:53:00
10:53 PM,78.1,73.0,84,29.92,10.0,Calm,Calm,-,N/A,,Clear,0,2013-08-08 03:53:00
11:53 PM,79.0,73.0,82,29.92,9.0,Calm,Calm,-,N/A,,Clear,0,2013-08-08 04:53:00